Regional Weather Roundup
Issued by NWS

Home | Current Version | Previous Version | Text Only | Print | Product List | Glossary Off
Versions: 1 2 3 4 5 6 7 8 9 10 11 12 13 14 15 16 17 18 19 20 21 22 23 24 25 26 27 28 29 30 31 32 33 34 35 36 37 38 39 40 41 42 43 44 45 46 47 48 49 50

000
ASUS45 KCYS 011010
RWRWY

WYOMING REGIONAL WEATHER ROUNDUP
NATIONAL WEATHER SERVICE CHEYENNE WY
400 AM MDT FRI AUG 01 2014

NOTE:  "FAIR" INDICATES FEW OR NO CLOUDS BELOW 12,000 FEET
WITH NO SIGNIFICANT WEATHER AND/OR OBSTRUCTIONS TO VISIBILITY.

WYZ001-011100-
YELLOWSTONE NATIONAL PARK

CITY           SKY/WX    TMP DP  RH WIND       PRES   REMARKS
LK YELLOWSTONE   N/A     39  37  92 CALM      30.44R
W YELLOWSTONE  NOT AVBL

$$
WYZ002>013-054>058-071-098>099-011100-
NORTHERN WYOMING

CITY           SKY/WX    TMP DP  RH WIND       PRES   REMARKS
JACKSON        CLEAR     48  43  81 NE7       30.32S
CODY           PTCLDY    63  43  48 W5        30.22R
GREYBULL       PTCLDY    61  42  49 N5        30.12S
WORLAND        MOCLDY    60  43  53 S6        30.14R
SHERIDAN       PTCLDY    61  41  47 CALM      30.13R
BUFFALO        PTCLDY    64  35  34 W6        30.18S
GILLETTE       CLEAR     63  43  48 S15       30.13F
HULETT         FAIR      72  41  33 MISG      30.15
NEWCASTLE      FAIR      59  43  55 W3        30.19

$$
WYZ014>020-022>026-101>103-011100-
CENTRAL WYOMING

CITY           SKY/WX    TMP DP  RH WIND       PRES   REMARKS
BIG PINEY      PTCLDY    48  45  89 CALM      30.34S
PINEDALE       CLOUDY    52  43  71 W3        30.35S
DUBOIS         CLOUDY    48  37  66 NW10      30.35F
LANDER         CLEAR     59  34  39 SE7       30.23R
RIVERTON       CLEAR     57  44  62 N3        30.23S
CASPER         PTCLDY    56  41  57 SW5       30.22F
DOUGLAS        PTCLDY    54  44  69 CALM      30.22S

$$
WYZ021-027>030-104>119-011100-
SOUTHERN WYOMING

CITY           SKY/WX    TMP DP  RH WIND       PRES   REMARKS
EVANSTON       PTCLDY    58  42  55 N3        30.32S
KEMMERER       SUNNY     50  39  66 N15       30.34S
FORT BRIDGER   FAIR      54  46  72 W7        30.34F
ROCK SPRINGS   CLEAR     57  36  45 CALM      30.30S
DIXON          FAIR      57  38  49 E6        30.29F
RAWLINS        CLEAR     49  42  77 NE5       30.31F
SARATOGA       FAIR      54  37  54 S10       30.32F
LARAMIE        CLEAR     49  43  80 S5        30.35F
CHEYENNE       CLEAR     53  46  77 W7        30.30S
TORRINGTON     CLEAR     56  50  80 CALM      30.17F
PINE BLUFFS    FAIR      50  50 100 W3        30.26S

$$


USA.gov is the U.S. government's official web portal to all federal, state and local government web resources and services.